Tracking 19795 objects as of 17-Jul-2019
HD Live streaming from Space Station
objects crossing your sky now

COSMOS 1862

Track COSMOS 1862 now!
10-day predictions
COSMOS 1862 is classified as:


NORAD ID: 18152
Int'l Code: 1987-055A
Perigee: 544.8 km
Apogee: 565.4 km
Inclination: 82.5 °
Period: 95.6 minutes
Semi major axis: 6926 km
RCS: 8.6433 m2 (large)
Launch date: July 1, 1987
Source: Commonwealth of Independent States (former USSR) (CIS)
Launch site: PLESETSK MISSILE AND SPACE COMPLEX (PKMTR)
aabbcc
Your satellite tracking list
Your tracking list is empty




NASA's NSSDC Master Catalog

Two Line Element Set (TLE):
1 18152U 87055A   19198.33690745 -.00000075  00000-0 -71806-5 0  9998
2 18152  82.4955 274.9905 0014883 133.2110 227.0363 15.06153575744065
Source of the keplerian elements: AFSPC